Location: DARK SKY Beskydy - Park tmavé oblohy, www.darkskybeskydy.cz
(49.4926°N, 18.5016°E)
Time: 11:06:53
(UTC+02:00)

BlueWalker 3 - Pass Details

Date: 18 June 2024
Orbit: 480 x 491 km, 53.2° (Epoch: 23 July)

Event Time Altitude Azimuth Distance (km) Brightness Sun altitude
Rises 23:47:18 0° 256° (WSW) 2,534 5.5 -15.9°
Reaches altitude 10° 23:49:29 10° 259° (W) 1,655 4.6 -16.0°
Maximum altitude 23:53:11 65° 342° (NNW) 531 2.2 -16.1°
Drops below altitude 10° 23:56:54 10° 65° (ENE) 1,657 4.7 -16.2°
Sets 23:59:05 0° 69° (ENE) 2,538 5.6 -16.3°
